Location: Caltech
(34.1382°N, 118.1253°W)
Time: 21:44:15
(UTC-07:00)

Cosmos 2219 Rocket - Visible Passes

Search period start: 27 July 2016 00:00
Search period end: 06 August 2016 00:00
Orbit: 829 x 846 km, 71.0° (Epoch: 26 July)

Date Brightness Start Highest point End Pass type
(mag) Time Alt. Az. Time Alt. Az. Time Alt. Az.
28 Jul 4.8 05:21:03 10° SE 05:24:30 17° E 05:27:58 10° ENE visible
29 Jul 4.8 05:05:05 10° SE 05:08:13 15° E 05:11:21 10° ENE visible
30 Jul 4.8 04:49:12 10° SE 04:51:56 14° E 04:54:41 10° ENE visible
31 Jul 4.9 04:33:23 10° ESE 04:35:39 13° E 04:37:55 10° ENE visible
01 Aug 4.9 04:17:44 10° ESE 04:19:22 11° E 04:21:00 10° E visible
02 Aug 5.1 04:02:58 10° E 04:03:05 10° E 04:03:12 10° E visible
03 Aug 2.2 05:24:18 10° SSW 05:29:53 87° WNW 05:35:30 10° NNE visible
04 Aug 2.2 05:07:58 10° SSW 05:13:33 87° ESE 05:19:09 10° NNE visible
05 Aug 2.2 04:51:57 12° SSW 04:57:13 80° ESE 05:02:49 10° NNE visible
